Weather Roundup
Issued by NWS Chicago, IL

Home | Current Version | Previous Version | Graphics & Text | Print | Product List | Glossary On
Versions: 1 2 3 4 5 6 7 8 9 10 11 12 13 14 15 16 17 18 19 20 21 22 23 24 25 26 27 28 29 30 31 32 33 34 35 36 37 38 39 40 41 42 43 44 45 46 47 48 49 50
000
NZUS59 KLOT 032310
HRRLOT

CHICAGO AREA WEATHER ROUNDUP
NATIONAL WEATHER SERVICE CHICAGO/ROMEOVILLE IL
500 PM CST TUE MAR 03 2015

NOTE: "FAIR" INDICATES FEW OR NO CLOUDS BELOW 12,000 FEET WITH NO
SIGNIFICANT WEATHER AND/OR OBSTRUCTIONS TO VISIBILITY.

* THESE STATIONS ARE NOT UNDER NWS QUALITY CONTROL. THEY ALSO MAY NOT
  REPORT WEATHER SUCH AS PRECIPITATION OR FOG.

ILZ005-006-012>014-019>023-040000-
NORTHEAST ILLINOIS

CITY           SKY/WX    TMP DP  RH WIND       PRES   REMARKS
OHARE          CLOUDY    34  29  82 W14       29.69R WCI  25
MIDWAY         CLOUDY    36  30  79 W17G23    29.70R
AURORA         CLOUDY    34  29  82 W17       29.71R WCI  23
LANSING*       CLOUDY    35  31  86 W14G24    29.71S WCI  26
JOLIET*        CLOUDY    34  31  87 W6        29.73R WCI  29
WAUKEGAN       CLOUDY    33  28  81 W10G18    29.67R WCI  25
DUPAGE AIRPORT CLOUDY    34  29  82 W14       29.69S WCI  25
WHEELING       CLOUDY    34  29  82 W12       29.70R WCI  25
KANKAKEE*      CLOUDY    35  32  91 W12       29.74F WCI  26
MORRIS*        CLOUDY    35  32  91 W14       29.71F WCI  25
LEWIS AIRPORT* CLOUDY    34  31  90 W13       29.72R WCI  25
NORTHERLY IS     N/A     35  30  82 W10         N/A  WCI  27
$$

WIZ051-052-058>065-066-070>072-040000-
SOUTHEAST WISCONSIN

CITY           SKY/WX    TMP DP  RH WIND       PRES   REMARKS
MILWAUKEE      CLOUDY    32  23  69 W15G23    29.66R WCI  22
KENOSHA*       CLOUDY    33  28  81 W10       29.66R WCI  25
RACINE*        CLOUDY    33  26  75 W10       29.67R WCI  25
BURLINGTON     CLOUDY    31  25  81 W9        29.66R WCI  22
WAUKESHA       CLOUDY    28  25  86 W16G23    29.65R WCI  17
WEST BEND      CLOUDY    30  23  74 W15       29.64R WCI  19
$$

INZ001>003-010>013-019-020-040000-
NORTHWEST INDIANA

CITY           SKY/WX    TMP DP  RH WIND       PRES   REMARKS
GARY*          CLOUDY    37  28  70 W17G35    29.72R
MICHIGAN CITY* NOT AVBL
RENSSELAER*    NOT AVBL
VALPARAISO     CLOUDY    35  31  85 W17       29.72R WCI  25
$$

LMZ740>746-040000-
SOUTHERN LAKE MICHIGAN

STATION/POSITION TIME  SKY/WX   TEMP WIND        PRES    VSBY
                                AIR  DIR/SP/G
                 (UTC)          (F)  (DEG/KT/KT) (MB)    (MI)
HARRISON CRIB    2200            35  270/ 21/ 26   N/A
BURNHAM HARBOR   2300            35  250/  9/ 15   N/A
CALUMET HARBOR   2300            35  250/  9/ 15 1005.0R
BURNS HARBOR     NOT AVBL
MICHIGAN CITY    2300            34  240/ 14/ 17   N/A
$$

ABBREVIATIONS USED IN REMARKS
   TC - TEMPERATURE IN CELSIUS
  WCI - WIND CHILL INDEX
   HX - HEAT INDEX
  VSB - VISIBILITY
$$


USA.gov is the U.S. government's official web portal to all federal, state and local government web resources and services.